When you browse on this site, cookies collect data to enhance your experience and personalize the content and advertising you see.
Visit our Privacy Policy to learn more. By continuing to use the site, you agree to this use of cookies and data.
  • In Netherlands
  • List of Countries
  • For 7 days
  • Water Temperature
  • Satellite Maps
  • Weather Map
  • Weather Widgets
  • user-avatar
    Login

    Hourly Weather Kruticy

    Today, 24 April, Wednesday

    Time Temperature Precipitation Wind Pressure Humidity
    00:00 +12°C° 0 mm 2 mps 750 mmHg 62%
    01:00 +10°C° 0 mm 2 mps 750 mmHg 63%
    02:00 +10°C° 0 mm 2 mps 750 mmHg 65%
    03:00 +9°C° 0 mm 2 mps 751 mmHg 66%
    04:00 +9°C° 0 mm 2 mps 751 mmHg 68%
    05:00 +9°C° 0 mm 2 mps 751 mmHg 69%
    06:00 +8°C° 0 mm 2 mps 751 mmHg 71%
    07:00 +10°C° 0 mm 2 mps 751 mmHg 65%
    08:00 +13°C° 0 mm 2 mps 751 mmHg 59%
    09:00 +14°C° 0 mm 3 mps 751 mmHg 54%
    10:00 +16°C° 0 mm 3 mps 751 mmHg 49%
    11:00 +18°C° 0 mm 3 mps 751 mmHg 44%
    12:00 +19°C° 0 mm 3 mps 751 mmHg 39%
    13:00 +20°C° 0 mm 3 mps 751 mmHg 38%
    14:00 +21°C° 0 mm 3 mps 751 mmHg 36%
    15:00 +21°C° 0 mm 3 mps 750 mmHg 35%
    16:00 +21°C° 0 mm 3 mps 750 mmHg 36%
    17:00 +21°C° 0 mm 3 mps 750 mmHg 38%
    18:00 +20°C° 0 mm 2 mps 750 mmHg 40%
    19:00 +19°C° 0 mm 2 mps 750 mmHg 43%
    20:00 +17°C° 0 mm 2 mps 750 mmHg 47%
    21:00 +16°C° 0 mm 2 mps 750 mmHg 50%
    22:00 +15°C° 0 mm 2 mps 750 mmHg 52%
    23:00 +14°C° 0 mm 2 mps 750 mmHg 54%

    Tomorrow, 25 April, Thursday

    Time Temperature Precipitation Wind Pressure Humidity
    00:00 +14°C° 0 mm 2 mps 750 mmHg 57%
    01:00 +13°C° 0 mm 2 mps 750 mmHg 58%
    02:00 +13°C° 0 mm 2 mps 750 mmHg 60%
    03:00 +12°C° 0 mm 2 mps 750 mmHg 62%
    04:00 +12°C° 0 mm 2 mps 750 mmHg 64%
    05:00 +12°C° 0 mm 2 mps 750 mmHg 65%
    06:00 +10°C° 0 mm 2 mps 750 mmHg 67%
    07:00 +13°C° 0 mm 2 mps 751 mmHg 61%
    08:00 +15°C° 0 mm 2 mps 751 mmHg 56%
    09:00 +17°C° 0 mm 2 mps 751 mmHg 50%
    10:00 +19°C° 0 mm 2 mps 751 mmHg 46%
    11:00 +20°C° 0 mm 2 mps 750 mmHg 42%
    12:00 +21°C° 0 mm 3 mps 750 mmHg 37%
    13:00 +23°C° 0 mm 2 mps 750 mmHg 36%
    14:00 +23°C° 0 mm 2 mps 750 mmHg 35%
    15:00 +24°C° 0 mm 2 mps 749 mmHg 34%
    16:00 +23°C° 0 mm 2 mps 749 mmHg 36%
    17:00 +23°C° 0 mm 2 mps 749 mmHg 38%
    18:00 +23°C° 0 mm 2 mps 749 mmHg 40%
    19:00 +22°C° 0 mm 1 mps 749 mmHg 43%
    20:00 +21°C° 0 mm 1 mps 749 mmHg 45%
    21:00 +20°C° 0 mm 1 mps 749 mmHg 48%
    22:00 +19°C° 0 mm 1 mps 749 mmHg 49%
    23:00 +19°C° 0 mm 1 mps 749 mmHg 51%

    Day after tomorrow, 26 April, Friday

    Time Temperature Precipitation Wind Pressure Humidity
    00:00 +18°C° 0 mm 1 mps 749 mmHg 52%
    01:00 +18°C° 0.2 mm 1 mps 748 mmHg 55%
    02:00 +16°C° 0.2 mm 1 mps 748 mmHg 59%
    03:00 +15°C° 0.2 mm 1 mps 748 mmHg 62%
    04:00 +15°C° 0.3 mm 1 mps 748 mmHg 65%
    05:00 +13°C° 0.3 mm 0 mps 748 mmHg 68%
    06:00 +13°C° 0.3 mm 0 mps 748 mmHg 71%
    07:00 +14°C° 0.5 mm 0 mps 748 mmHg 68%
    08:00 +16°C° 0.5 mm 1 mps 748 mmHg 65%
    09:00 +18°C° 0.5 mm 1 mps 748 mmHg 62%
    10:00 +18°C° 0.3 mm 2 mps 748 mmHg 58%
    11:00 +19°C° 0.3 mm 2 mps 748 mmHg 53%
    12:00 +20°C° 0.3 mm 2 mps 748 mmHg 49%
    13:00 +21°C° 0.4 mm 2 mps 748 mmHg 47%
    14:00 +21°C° 0.4 mm 2 mps 747 mmHg 46%
    15:00 +21°C° 0.4 mm 2 mps 747 mmHg 44%
    16:00 +20°C° 0.2 mm 2 mps 747 mmHg 49%
    17:00 +20°C° 0.2 mm 2 mps 746 mmHg 53%
    18:00 +19°C° 0.2 mm 2 mps 746 mmHg 57%
    19:00 +18°C° 0.3 mm 2 mps 746 mmHg 61%
    20:00 +18°C° 0.3 mm 1 mps 746 mmHg 65%
    21:00 +14°C° 0.3 mm 0 mps 746 mmHg 69%
    22:00 +15°C° 0 mm 1 mps 745 mmHg 70%
    23:00 +14°C° 0 mm 1 mps 745 mmHg 72%

    27 April, Saturday

    Time Temperature Precipitation Wind Pressure Humidity
    00:00 +14°C° 0 mm 1 mps 745 mmHg 73%
    01:00 +14°C° 0 mm 1 mps 745 mmHg 73%
    02:00 +14°C° 0 mm 1 mps 745 mmHg 74%
    03:00 +14°C° 0 mm 2 mps 745 mmHg 74%
    04:00 +14°C° 0.1 mm 2 mps 744 mmHg 75%
    05:00 +13°C° 0.1 mm 2 mps 744 mmHg 76%
    06:00 +13°C° 0.1 mm 2 mps 744 mmHg 78%
    07:00 +14°C° 0 mm 2 mps 744 mmHg 74%
    08:00 +14°C° 0 mm 3 mps 743 mmHg 70%
    09:00 +16°C° 0 mm 3 mps 743 mmHg 66%
    10:00 +17°C° 0 mm 3 mps 743 mmHg 57%
    11:00 +19°C° 0 mm 3 mps 743 mmHg 48%
    12:00 +21°C° 0 mm 4 mps 743 mmHg 39%
    13:00 +21°C° 0 mm 3 mps 742 mmHg 41%
    14:00 +21°C° 0 mm 3 mps 742 mmHg 42%
    15:00 +20°C° 0 mm 3 mps 742 mmHg 44%
    16:00 +20°C° 0 mm 3 mps 741 mmHg 48%
    17:00 +20°C° 0 mm 2 mps 741 mmHg 51%
    18:00 +19°C° 0 mm 2 mps 741 mmHg 54%
    19:00 +18°C° 0 mm 2 mps 741 mmHg 58%
    20:00 +17°C° 0 mm 2 mps 741 mmHg 61%
    21:00 +16°C° 0 mm 3 mps 741 mmHg 65%
    22:00 +14°C° 0 mm 3 mps 740 mmHg 68%
    23:00 +14°C° 0 mm 2 mps 740 mmHg 71%

    28 April, Sunday

    Time Temperature Precipitation Wind Pressure Humidity
    00:00 +14°C° 0 mm 2 mps 740 mmHg 73%
    01:00 +13°C° 0.2 mm 2 mps 740 mmHg 76%
    02:00 +13°C° 0.2 mm 2 mps 740 mmHg 79%
    03:00 +13°C° 0.2 mm 2 mps 740 mmHg 81%
    04:00 +13°C° 0.2 mm 2 mps 740 mmHg 84%
    05:00 +13°C° 0.2 mm 2 mps 740 mmHg 86%
    06:00 +13°C° 0.2 mm 2 mps 740 mmHg 88%
    07:00 +14°C° 0 mm 2 mps 740 mmHg 83%
    08:00 +15°C° 0 mm 2 mps 740 mmHg 78%
    09:00 +16°C° 0 mm 2 mps 740 mmHg 74%
    10:00 +16°C° 0.3 mm 3 mps 741 mmHg 72%
    11:00 +17°C° 0.3 mm 3 mps 741 mmHg 70%
    12:00 +17°C° 0.3 mm 4 mps 741 mmHg 68%
    13:00 +16°C° 0.2 mm 5 mps 742 mmHg 68%
    14:00 +15°C° 0.2 mm 6 mps 742 mmHg 68%
    15:00 +14°C° 0.2 mm 6 mps 742 mmHg 69%
    16:00 +14°C° 0 mm 6 mps 742 mmHg 66%
    17:00 +14°C° 0 mm 6 mps 742 mmHg 63%
    18:00 +14°C° 0 mm 6 mps 743 mmHg 61%
    19:00 +13°C° 0 mm 5 mps 743 mmHg 60%
    20:00 +10°C° 0 mm 5 mps 743 mmHg 60%
    21:00 +9°C° 0 mm 5 mps 744 mmHg 60%
    22:00 +8°C° 0 mm 5 mps 744 mmHg 59%
    23:00 +7°C° 0 mm 5 mps 745 mmHg 57%

    29 April, Monday

    Time Temperature Precipitation Wind Pressure Humidity
    00:00 +6°C° 0 mm 5 mps 745 mmHg 56%
    01:00 +5°C° 0 mm 5 mps 745 mmHg 59%
    02:00 +5°C° 0 mm 5 mps 746 mmHg 62%
    03:00 +4°C° 0 mm 4 mps 746 mmHg 65%
    04:00 +3°C° 0 mm 5 mps 746 mmHg 64%
    05:00 +2°C° 0 mm 5 mps 747 mmHg 64%
    06:00 +2°C° 0 mm 5 mps 747 mmHg 63%
    07:00 +3°C° 0 mm 5 mps 747 mmHg 57%
    08:00 +4°C° 0 mm 6 mps 748 mmHg 50%
    09:00 +5°C° 0 mm 6 mps 748 mmHg 44%
    10:00 +7°C° 0 mm 6 mps 748 mmHg 41%
    11:00 +8°C° 0 mm 6 mps 748 mmHg 39%
    12:00 +9°C° 0 mm 6 mps 748 mmHg 36%
    13:00 +10°C° 0 mm 6 mps 748 mmHg 36%
    14:00 +10°C° 0 mm 6 mps 748 mmHg 36%
    15:00 +10°C° 0 mm 5 mps 748 mmHg 36%
    16:00 +10°C° 0 mm 5 mps 748 mmHg 38%
    17:00 +10°C° 0 mm 5 mps 748 mmHg 39%
    18:00 +10°C° 0 mm 4 mps 748 mmHg 41%
    19:00 +8°C° 0 mm 4 mps 748 mmHg 45%
    20:00 +8°C° 0 mm 3 mps 748 mmHg 50%
    21:00 +6°C° 0 mm 2 mps 748 mmHg 54%
    22:00 +6°C° 0 mm 2 mps 748 mmHg 55%
    23:00 +5°C° 0 mm 2 mps 749 mmHg 56%
    Show more